When you browse on this site, cookies collect data to enhance your experience and personalize the content and advertising you see.
Visit our Privacy Policy to learn more. By continuing to use the site, you agree to this use of cookies and data.
  • In Österreich
  • Länderverzeichnis
  • Für 7 Tage
  • Wassertemperatur
  • Satellitenkarten
  • Wetterkarte
  • News
  • Widgets
  • user-avatar
    Anmelden

    Stündliche Wetter Rohivs'ke

    Heute, 20 Mai, Montag

    Zeit Temperatur Niederschläge Wind Luftdruck Luftfeuchtigkeit
    00:00 +18°C° 0 mm 4 m/S 749 mmHg 68%
    01:00 +17°C° 0 mm 4 m/S 749 mmHg 69%
    02:00 +16°C° 0 mm 3 m/S 749 mmHg 71%
    03:00 +16°C° 0 mm 3 m/S 749 mmHg 73%
    04:00 +16°C° 0 mm 3 m/S 749 mmHg 74%
    05:00 +16°C° 0 mm 3 m/S 749 mmHg 75%
    06:00 +18°C° 0 mm 4 m/S 750 mmHg 70%
    07:00 +20°C° 0 mm 5 m/S 750 mmHg 64%
    08:00 +22°C° 0 mm 5 m/S 750 mmHg 58%
    09:00 +23°C° 0 mm 5 m/S 750 mmHg 53%
    10:00 +25°C° 0 mm 5 m/S 750 mmHg 48%
    11:00 +26°C° 0 mm 6 m/S 750 mmHg 43%
    12:00 +27°C° 0 mm 6 m/S 750 mmHg 43%
    13:00 +27°C° 0 mm 6 m/S 750 mmHg 42%
    14:00 +28°C° 0 mm 5 m/S 750 mmHg 41%
    15:00 +28°C° 0 mm 5 m/S 750 mmHg 43%
    16:00 +27°C° 0 mm 5 m/S 750 mmHg 46%
    17:00 +27°C° 0 mm 5 m/S 750 mmHg 48%
    18:00 +25°C° 0 mm 5 m/S 750 mmHg 52%
    19:00 +22°C° 0 mm 5 m/S 750 mmHg 55%
    20:00 +21°C° 0 mm 5 m/S 750 mmHg 58%
    21:00 +20°C° 0 mm 4 m/S 750 mmHg 61%
    22:00 +19°C° 0 mm 4 m/S 750 mmHg 64%
    23:00 +18°C° 0 mm 4 m/S 750 mmHg 67%

    Morgen, 21 Mai, Dienstag

    Zeit Temperatur Niederschläge Wind Luftdruck Luftfeuchtigkeit
    00:00 +18°C° 0 mm 4 m/S 750 mmHg 68%
    01:00 +17°C° 0 mm 4 m/S 750 mmHg 69%
    02:00 +17°C° 0 mm 4 m/S 750 mmHg 70%
    03:00 +16°C° 0 mm 5 m/S 750 mmHg 70%
    04:00 +16°C° 0 mm 5 m/S 750 mmHg 70%
    05:00 +16°C° 0 mm 5 m/S 750 mmHg 70%
    06:00 +17°C° 0 mm 5 m/S 750 mmHg 67%
    07:00 +17°C° 0 mm 6 m/S 750 mmHg 64%
    08:00 +19°C° 0 mm 6 m/S 750 mmHg 60%
    09:00 +20°C° 0 mm 7 m/S 750 mmHg 58%
    10:00 +22°C° 0 mm 7 m/S 750 mmHg 55%
    11:00 +23°C° 0 mm 7 m/S 750 mmHg 52%
    12:00 +23°C° 0.1 mm 7 m/S 750 mmHg 55%
    13:00 +23°C° 0.1 mm 7 m/S 749 mmHg 57%
    14:00 +23°C° 0.1 mm 6 m/S 749 mmHg 59%
    15:00 +23°C° 0 mm 6 m/S 749 mmHg 61%
    16:00 +23°C° 0 mm 6 m/S 749 mmHg 62%
    17:00 +22°C° 0 mm 6 m/S 748 mmHg 64%
    18:00 +21°C° 0 mm 5 m/S 748 mmHg 70%
    19:00 +20°C° 0 mm 5 m/S 748 mmHg 75%
    20:00 +19°C° 0 mm 5 m/S 748 mmHg 80%
    21:00 +18°C° 0 mm 4 m/S 748 mmHg 83%
    22:00 +17°C° 0 mm 4 m/S 748 mmHg 87%
    23:00 +17°C° 0 mm 4 m/S 748 mmHg 90%

    übermorgen, 22 Mai, Mittwoch

    Zeit Temperatur Niederschläge Wind Luftdruck Luftfeuchtigkeit
    00:00 +16°C° 0 mm 3 m/S 748 mmHg 91%
    01:00 +16°C° 0 mm 3 m/S 748 mmHg 92%
    02:00 +14°C° 0 mm 3 m/S 748 mmHg 93%
    03:00 +15°C° 0 mm 2 m/S 747 mmHg 92%
    04:00 +16°C° 0 mm 2 m/S 747 mmHg 92%
    05:00 +16°C° 0 mm 2 m/S 747 mmHg 91%
    06:00 +17°C° 0.3 mm 2 m/S 747 mmHg 86%
    07:00 +18°C° 0.3 mm 3 m/S 747 mmHg 82%
    08:00 +19°C° 0.3 mm 3 m/S 747 mmHg 78%
    09:00 +20°C° 0.7 mm 3 m/S 747 mmHg 75%
    10:00 +20°C° 0.7 mm 3 m/S 747 mmHg 73%
    11:00 +21°C° 0.7 mm 3 m/S 747 mmHg 71%
    12:00 +20°C° 1.3 mm 3 m/S 747 mmHg 74%
    13:00 +19°C° 1.3 mm 3 m/S 746 mmHg 76%
    14:00 +18°C° 1.3 mm 3 m/S 746 mmHg 79%
    15:00 +18°C° 0.5 mm 3 m/S 746 mmHg 80%
    16:00 +18°C° 0.5 mm 2 m/S 746 mmHg 81%
    17:00 +17°C° 0.5 mm 2 m/S 745 mmHg 82%
    18:00 +18°C° 0.2 mm 1 m/S 746 mmHg 84%
    19:00 +16°C° 0.2 mm 1 m/S 746 mmHg 85%
    20:00 +16°C° 0.2 mm 1 m/S 746 mmHg 87%
    21:00 +16°C° 0 mm 1 m/S 746 mmHg 87%
    22:00 +15°C° 0 mm 1 m/S 746 mmHg 87%
    23:00 +15°C° 0 mm 1 m/S 746 mmHg 88%

    23 Mai, Donnerstag

    Zeit Temperatur Niederschläge Wind Luftdruck Luftfeuchtigkeit
    00:00 +15°C° 0 mm 1 m/S 746 mmHg 88%
    01:00 +15°C° 0 mm 1 m/S 746 mmHg 89%
    02:00 +15°C° 0 mm 1 m/S 746 mmHg 89%
    03:00 +15°C° 0 mm 1 m/S 746 mmHg 88%
    04:00 +15°C° 0 mm 1 m/S 746 mmHg 87%
    05:00 +14°C° 0 mm 0 m/S 746 mmHg 85%
    06:00 +16°C° 0 mm 0 m/S 746 mmHg 78%
    07:00 +20°C° 0 mm 1 m/S 746 mmHg 71%
    08:00 +21°C° 0 mm 1 m/S 746 mmHg 64%
    09:00 +23°C° 0 mm 1 m/S 746 mmHg 59%
    10:00 +24°C° 0 mm 2 m/S 746 mmHg 53%
    11:00 +25°C° 0 mm 2 m/S 746 mmHg 47%
    12:00 +26°C° 0 mm 2 m/S 746 mmHg 47%
    13:00 +26°C° 0 mm 3 m/S 746 mmHg 46%
    14:00 +26°C° 0 mm 3 m/S 746 mmHg 45%
    15:00 +26°C° 0 mm 3 m/S 745 mmHg 47%
    16:00 +26°C° 0 mm 2 m/S 745 mmHg 48%
    17:00 +26°C° 0 mm 2 m/S 745 mmHg 49%
    18:00 +24°C° 0 mm 2 m/S 745 mmHg 53%
    19:00 +23°C° 0 mm 2 m/S 745 mmHg 57%
    20:00 +20°C° 0 mm 2 m/S 745 mmHg 61%
    21:00 +20°C° 0.3 mm 2 m/S 746 mmHg 67%
    22:00 +19°C° 0.3 mm 3 m/S 746 mmHg 73%
    23:00 +18°C° 0.3 mm 3 m/S 746 mmHg 79%

    24 Mai, Freitag

    Zeit Temperatur Niederschläge Wind Luftdruck Luftfeuchtigkeit
    00:00 +17°C° 0.2 mm 3 m/S 746 mmHg 80%
    01:00 +17°C° 0.2 mm 3 m/S 746 mmHg 82%
    02:00 +16°C° 0.2 mm 3 m/S 746 mmHg 83%
    03:00 +16°C° 0 mm 2 m/S 746 mmHg 83%
    04:00 +16°C° 0 mm 2 m/S 746 mmHg 84%
    05:00 +16°C° 0 mm 2 m/S 746 mmHg 84%
    06:00 +18°C° 0 mm 3 m/S 746 mmHg 78%
    07:00 +19°C° 0 mm 3 m/S 746 mmHg 73%
    08:00 +21°C° 0 mm 3 m/S 746 mmHg 67%
    09:00 +24°C° 0 mm 3 m/S 746 mmHg 62%
    10:00 +25°C° 0 mm 4 m/S 746 mmHg 57%
    11:00 +26°C° 0 mm 4 m/S 745 mmHg 52%
    12:00 +26°C° 0.8 mm 4 m/S 745 mmHg 53%
    13:00 +26°C° 0.8 mm 4 m/S 745 mmHg 53%
    14:00 +26°C° 0.8 mm 4 m/S 745 mmHg 54%
    15:00 +26°C° 0.7 mm 4 m/S 745 mmHg 56%
    16:00 +25°C° 0.7 mm 4 m/S 744 mmHg 58%
    17:00 +25°C° 0.7 mm 3 m/S 744 mmHg 60%
    18:00 +24°C° 0.5 mm 3 m/S 744 mmHg 66%
    19:00 +21°C° 0.5 mm 3 m/S 744 mmHg 71%
    20:00 +20°C° 0.5 mm 3 m/S 744 mmHg 76%
    21:00 +19°C° 0.1 mm 3 m/S 744 mmHg 78%
    22:00 +19°C° 0.1 mm 2 m/S 744 mmHg 79%
    23:00 +18°C° 0.1 mm 2 m/S 744 mmHg 81%

    25 Mai, Samstag

    Zeit Temperatur Niederschläge Wind Luftdruck Luftfeuchtigkeit
    00:00 +17°C° 0.7 mm 2 m/S 744 mmHg 82%
    01:00 +17°C° 0.7 mm 2 m/S 743 mmHg 83%
    02:00 +16°C° 0.7 mm 2 m/S 743 mmHg 84%
    03:00 +16°C° 0 mm 2 m/S 743 mmHg 84%
    04:00 +16°C° 0 mm 1 m/S 743 mmHg 83%
    05:00 +16°C° 0 mm 1 m/S 743 mmHg 82%
    06:00 +19°C° 0.1 mm 1 m/S 743 mmHg 76%
    07:00 +19°C° 0.1 mm 2 m/S 743 mmHg 71%
    08:00 +21°C° 0.1 mm 2 m/S 743 mmHg 65%
    09:00 +23°C° 0.5 mm 2 m/S 742 mmHg 63%
    10:00 +24°C° 0.5 mm 2 m/S 742 mmHg 61%
    11:00 +25°C° 0.5 mm 2 m/S 742 mmHg 58%
    12:00 +24°C° 2 mm 2 m/S 741 mmHg 60%
    13:00 +24°C° 2 mm 1 m/S 741 mmHg 61%
    14:00 +24°C° 2 mm 1 m/S 741 mmHg 63%
    15:00 +24°C° 1.9 mm 1 m/S 741 mmHg 67%
    16:00 +23°C° 1.9 mm 1 m/S 740 mmHg 72%
    17:00 +20°C° 1.9 mm 0 m/S 740 mmHg 77%
    18:00 +21°C° 0.1 mm 1 m/S 740 mmHg 80%
    19:00 +20°C° 0.1 mm 1 m/S 740 mmHg 82%
    20:00 +20°C° 0.1 mm 1 m/S 740 mmHg 85%
    21:00 +19°C° 0 mm 1 m/S 740 mmHg 86%
    22:00 +18°C° 0 mm 2 m/S 740 mmHg 87%
    23:00 +18°C° 0 mm 2 m/S 740 mmHg 87%
    Mehr zeigen